CW7804 Weather Reports


Display with metric or nautical units.
time (UTC)temp
F
wind
direction
speed
MPH
gust
MPH
rain 1hr
in
rain 24hr
in
rain mn
in
humidity
%
barometer
mb
20210413184523 72 5 0.0 2.0 0.00 0.00 0.00 39 1018.5
20210413181945 74 22 2.0 8.0 0.00 0.00 0.00 37 1018.3
20210413180026 73 15 1.0 6.0 0.00 0.00 0.00 35 1018.3
20210413173126 73 18 0.0 3.0 0.00 0.00 0.00 37 1018.3
20210413171549 72 31 2.0 5.0 0.00 0.00 0.00 38 1018.6
20210413164546 70 5 1.0 4.0 0.00 0.00 0.00 39 1018.8
20210413163223 71 345 0.0 3.0 0.00 0.00 0.00 39 1018.9
20210413160259 71 17 1.0 5.0 0.00 0.00 0.00 40 1019.3
20210413153232 70 346 1.0 6.0 0.00 0.00 0.00 42 1019.1
20210413151618 69 34 2.0 6.0 0.00 0.00 0.00 44 1019.0
20210413144544 68 360 3.0 6.0 0.00 0.00 0.00 44 1018.9
20210413143145 67 360 4.0 8.0 0.00 0.00 0.00 46 1018.8
20210413140145 64 360 1.0 5.0 0.00 0.00 0.00 52 1018.4
20210413131600 58 360 1.0 3.0 0.00 0.00 0.00 67 1017.7
20210413125110 55 360 0.0 0.0 0.00 0.00 0.00 76 1018.3
20210413120155 53 360 0.0 0.0 0.00 0.00 0.00 80 1017.8
20210413113121 52 360 0.0 0.0 0.00 0.00 0.00 78 1017.7
20210413104522 52 360 0.0 0.0 0.00 0.00 0.00 77 1016.6
20210413101640 53 360 0.0 0.0 0.00 0.00 0.00 72 1016.3
20210413094631 53 360 0.0 0.0 0.00 0.00 0.00 66 1015.9
20210413093036 54 360 0.0 0.0 0.00 0.00 0.00 69 1015.7
20210413075130 56 360 0.0 3.0 0.00 0.00 0.00 55 1014.8
20210413073135 55 360 0.0 0.0 0.00 0.00 0.00 60 1014.6
20210413070310 56 360 0.0 0.0 0.00 0.00 0.00 54 1014.3
20210413063150 56 360 0.0 3.0 0.00 0.00 0.00 58 1013.8
20210413061524 56 360 0.0 4.0 0.00 0.00 0.00 57 1013.6
20210413054611 55 360 0.0 0.0 0.00 0.00 0.00 67 1013.4
20210413051645 57 360 0.0 0.0 0.00 0.00 0.00 61 1013.3
20210413044643 60 360 0.0 0.0 0.00 0.00 0.00 54 1013.4
20210413041655 63 360 0.0 3.0 0.00 0.00 0.00 37 1013.0
20210413040147 63 360 1.0 4.0 0.00 0.00 0.00 38 1012.9
20210413034652 62 360 1.0 4.0 0.00 0.00 0.00 38 1012.8
20210413033041 61 360 0.0 0.0 0.00 0.00 0.00 41 1012.7
20210413023118 66 360 0.0 0.0 0.00 0.00 0.00 37 1011.6
20210413020113 68 360 0.0 2.0 0.00 0.00 0.00 31 1010.7
20210413014511 67 360 0.0 2.0 0.00 0.00 0.00 32 1010.4
20210413013158 66 360 0.0 2.0 0.00 0.00 0.00 36 1010.0
20210413011837 66 360 0.0 0.0 0.00 0.00 0.00 39 1009.7
20210413003051 70 360 0.0 0.0 0.00 0.00 0.00 34 1008.9
20210413000053 72 355 0.0 0.0 0.00 0.00 0.00 29 1008.2
20210412233142 75 355 1.0 3.0 0.00 0.00 0.00 23 1007.9
20210412230130 77 260 0.0 2.0 0.00 0.00 0.00 23 1007.2
20210412224634 78 259 1.0 2.0 0.00 0.00 0.00 21 1006.9
20210412223145 78 323 0.0 3.0 0.00 0.00 0.00 21 1006.6
20210412220040 80 289 2.0 6.0 0.00 0.00 0.00 18 1006.2
20210412213121 80 273 1.0 6.0 0.00 0.00 0.00 22 1006.0
20210412211538 81 346 1.0 5.0 0.00 0.00 0.00 21 1005.9
20210412210141 81 277 2.0 9.0 0.00 0.00 0.00 20 1005.7
20210412204654 80 261 2.0 6.0 0.00 0.00 0.00 21 1005.6
20210412203122 81 263 2.0 7.0 0.00 0.00 0.00 20 1005.6
20210412200311 80 269 2.0 8.0 0.00 0.00 0.00 25 1005.6
20210412193152 79 265 3.0 6.0 0.00 0.00 0.00 24 1005.7
20210412191524 79 270 2.0 7.0 0.00 0.00 0.00 27 1005.7
20210412190420 79 284 2.0 6.0 0.00 0.00 0.00 26 1006.0